Location: Rottenacker
(48.2350°N, 9.6886°E)
Time: 12:41:18
(UTC+01:00)

Tiangong 2 - Visible Passes

Search period start: 20 February 2018 00:00
Search period end: 02 March 2018 00:00
Orbit: 384 x 388 km, 42.8° (Epoch: 20 February)

Date Brightness Start Highest point End Pass type
(mag) Time Alt. Az. Time Alt. Az. Time Alt. Az.
20 Feb 3.8 19:50:31 10° SW 19:52:00 13° SSW 19:52:35 12° SSW visible
21 Feb 3.5 18:51:04 10° WSW 18:53:17 18° SSW 18:55:29 10° SSE visible
23 Feb 4.0 18:30:25 10° SW 18:31:51 12° SSW 18:33:16 10° S visible
